TimeEDT,TemperatureF,Dew PointF,Humidity,Sea Level PressureIn,VisibilityMPH,Wind Direction,Wind SpeedMPH,Gust SpeedMPH,PrecipitationIn,Events,Conditions,WindDirDegrees,DateUTC
12:58 AM,37.2,31.5,80,30.60,10.0,NNE,3.5,-,N/A,,Overcast,30,2014-04-18 04:58:00
1:58 AM,37.6,30.9,77,30.58,10.0,ENE,4.6,-,N/A,,Overcast,70,2014-04-18 05:58:00
2:58 AM,37.8,30.2,74,30.55,10.0,NE,5.8,-,N/A,,Overcast,50,2014-04-18 06:58:00
3:58 AM,37.8,29.1,71,30.52,10.0,ENE,9.2,-,N/A,,Overcast,70,2014-04-18 07:58:00
4:58 AM,37.8,29.7,73,30.50,10.0,NE,8.1,-,N/A,,Overcast,50,2014-04-18 08:58:00
5:58 AM,37.9,29.7,72,30.50,10.0,NE,5.8,-,N/A,,Overcast,50,2014-04-18 09:58:00
6:58 AM,37.9,30.0,73,30.52,10.0,NE,6.9,-,N/A,,Overcast,40,2014-04-18 10:58:00
7:58 AM,38.3,29.8,72,30.55,10.0,NE,8.1,-,N/A,,Overcast,50,2014-04-18 11:58:00
8:58 AM,39.0,29.8,70,30.54,10.0,NE,9.2,-,N/A,,Overcast,40,2014-04-18 12:58:00
9:58 AM,40.6,30.2,66,30.51,10.0,East,8.1,-,N/A,,Overcast,90,2014-04-18 13:58:00
10:58 AM,43.9,31.3,61,30.49,10.0,ENE,8.1,-,N/A,,Overcast,70,2014-04-18 14:58:00
11:58 AM,44.6,31.3,60,30.48,10.0,NNE,5.8,-,N/A,,Mostly Cloudy,30,2014-04-18 15:58:00
12:10 PM,44.6,32.0,61,30.46,10.0,East,5.8,-,N/A,,Mostly Cloudy,80,2014-04-18 16:10:00
12:13 PM,44.6,32.0,61,30.46,10.0,SE,2.3,-,N/A,,Overcast,130,2014-04-18 16:13:00
12:19 PM,46.4,32.0,57,30.45,10.0,Variable,5.8,-,N/A,,Mostly Cloudy,0,2014-04-18 16:19:00
12:58 PM,46.8,31.5,55,30.45,10.0,Variable,5.8,-,N/A,,Scattered Clouds,0,2014-04-18 16:58:00
1:58 PM,48.9,32.2,52,30.43,10.0,Variable,5.8,-,N/A,,Scattered Clouds,0,2014-04-18 17:58:00
2:58 PM,50.5,32.2,49,30.38,10.0,NE,5.8,-,N/A,,Scattered Clouds,40,2014-04-18 18:58:00
3:58 PM,50.9,32.0,48,30.35,10.0,Calm,Calm,-,N/A,,Mostly Cloudy,0,2014-04-18 19:58:00
4:58 PM,51.8,32.2,47,30.35,10.0,East,2.3,-,N/A,,Mostly Cloudy,100,2014-04-18 20:58:00
5:58 PM,51.3,34.2,52,30.32,10.0,SSE,5.8,-,N/A,,Overcast,150,2014-04-18 21:58:00
6:58 PM,45.3,34.3,65,30.32,10.0,SE,8.1,-,N/A,,Overcast,130,2014-04-18 22:58:00
7:58 PM,42.1,34.2,74,30.30,10.0,SE,5.8,-,N/A,,Overcast,130,2014-04-18 23:58:00
8:58 PM,40.6,33.6,76,30.30,10.0,SSE,5.8,-,N/A,,Scattered Clouds,150,2014-04-19 00:58:00
9:58 PM,39.7,33.8,79,30.32,10.0,South,4.6,-,N/A,,Mostly Cloudy,190,2014-04-19 01:58:00
10:58 PM,39.0,34.0,82,30.30,10.0,East,1.2,-,N/A,,Clear,90,2014-04-19 02:58:00
11:58 PM,38.1,34.3,86,30.30,10.0,SW,3.5,-,N/A,,Clear,220,2014-04-19 03:58:00